TimeEST,TemperatureF,Dew PointF,Humidity,Sea Level PressureIn,VisibilityMPH,Wind Direction,Wind SpeedMPH,Gust SpeedMPH,PrecipitationIn,Events,Conditions,WindDirDegrees,DateUTC
12:09 AM,15.8,12.2,86,30.32,3.0,SW,9.2,-,0.00,Snow,Light Snow,230,2014-01-01 05:09:00
12:37 AM,15.8,12.2,86,30.32,2.0,SW,8.1,-,0.00,Snow,Light Snow,230,2014-01-01 05:37:00
12:53 AM,16.0,12.0,84,30.35,2.0,WSW,8.1,-,0.00,Snow,Light Snow,240,2014-01-01 05:53:00
1:42 AM,15.8,12.2,86,30.31,3.0,WSW,3.5,-,0.00,Snow,Light Snow,240,2014-01-01 06:42:00
1:53 AM,16.0,12.0,84,30.35,3.0,WSW,3.5,-,0.00,Snow,Light Snow,250,2014-01-01 06:53:00
2:24 AM,15.8,12.2,86,30.31,2.5,Calm,Calm,-,0.00,Snow,Light Snow,0,2014-01-01 07:24:00
2:45 AM,15.8,12.2,86,30.31,1.8,Calm,Calm,-,0.00,Snow,Light Snow,0,2014-01-01 07:45:00
2:53 AM,16.0,12.0,84,30.34,1.8,NNW,3.5,-,0.01,Snow,Light Snow,330,2014-01-01 07:53:00
3:08 AM,15.8,12.2,86,30.31,2.5,Calm,Calm,-,0.00,Snow,Light Snow,0,2014-01-01 08:08:00
3:53 AM,17.1,12.9,84,30.35,2.5,Calm,Calm,-,0.00,Snow,Light Snow,0,2014-01-01 08:53:00
4:38 AM,15.8,10.4,79,30.31,1.2,NNW,5.8,-,0.00,Snow,Light Snow,340,2014-01-01 09:38:00
4:50 AM,15.8,10.4,79,30.32,0.8,North,6.9,-,0.00,Snow,Light Snow,10,2014-01-01 09:50:00
4:53 AM,15.1,10.0,80,30.35,0.8,North,5.8,-,0.00,Snow,Light Snow,360,2014-01-01 09:53:00
5:07 AM,15.8,10.4,79,30.32,1.0,North,5.8,-,0.00,Snow,Light Snow,360,2014-01-01 10:07:00
5:29 AM,15.8,10.4,79,30.32,2.5,North,6.9,-,0.01,Snow,Light Snow,360,2014-01-01 10:29:00
5:42 AM,15.8,10.4,79,30.32,4.0,North,5.8,-,0.01,Snow,Light Snow,360,2014-01-01 10:42:00
5:53 AM,15.1,10.0,80,30.35,5.0,NNE,3.5,-,0.01,Snow,Light Snow,20,2014-01-01 10:53:00
6:12 AM,15.8,10.4,79,30.32,1.0,NNE,3.5,-,0.00,Snow,Light Snow,20,2014-01-01 11:12:00
6:53 AM,15.1,10.0,80,30.37,1.2,NNE,8.1,-,0.01,Snow,Light Snow,20,2014-01-01 11:53:00
7:14 AM,14.0,8.6,79,30.34,1.5,NNE,8.1,-,0.00,Snow,Light Snow,30,2014-01-01 12:14:00
7:45 AM,14.0,10.4,86,30.35,2.0,NNE,6.9,-,0.01,Snow,Light Snow,20,2014-01-01 12:45:00
7:53 AM,14.0,10.0,84,30.38,2.0,NNE,8.1,-,0.01,Snow,Light Snow,20,2014-01-01 12:53:00
8:21 AM,12.2,8.6,85,30.35,1.2,North,8.1,-,0.00,Snow,Light Snow,10,2014-01-01 13:21:00
8:53 AM,12.9,8.1,81,30.40,1.2,NNE,10.4,-,0.02,Snow,Light Snow,30,2014-01-01 13:53:00
9:11 AM,12.2,6.8,79,30.36,2.0,NNE,10.4,-,0.00,Snow,Light Snow,20,2014-01-01 14:11:00
9:26 AM,12.2,8.6,85,30.36,1.5,North,10.4,-,0.00,Snow,Light Snow,10,2014-01-01 14:26:00
9:53 AM,12.0,8.1,84,30.41,1.8,NNE,8.1,-,0.00,Snow,Light Snow,20,2014-01-01 14:53:00
10:47 AM,12.2,8.6,85,30.38,0.8,NE,10.4,-,0.02,Snow,Light Snow,40,2014-01-01 15:47:00
10:53 AM,12.0,7.0,80,30.42,0.8,NNE,8.1,-,0.02,Snow,Light Snow,30,2014-01-01 15:53:00
11:53 AM,12.0,7.0,80,30.40,0.8,North,9.2,-,0.03,Snow,Light Snow,360,2014-01-01 16:53:00
12:53 PM,12.0,8.1,84,30.37,0.8,NNE,11.5,-,0.03,Snow,Light Snow,30,2014-01-01 17:53:00
1:31 PM,12.2,6.8,79,30.31,1.0,NNE,11.5,-,0.01,Snow,Light Snow,20,2014-01-01 18:31:00
1:53 PM,12.9,8.1,81,30.34,1.0,North,8.1,-,0.02,Snow,Light Snow,10,2014-01-01 18:53:00
2:53 PM,12.9,8.1,81,30.33,1.5,NNE,10.4,-,0.01,Snow,Light Snow,20,2014-01-01 19:53:00
3:01 PM,12.2,8.6,85,30.29,2.0,NNE,9.2,-,0.00,Snow,Light Snow,20,2014-01-01 20:01:00
3:46 PM,12.2,8.6,85,30.28,1.8,NNE,12.7,-,0.01,Snow,Light Snow,20,2014-01-01 20:46:00
3:53 PM,12.9,8.1,81,30.32,1.5,NNE,11.5,-,0.02,Snow,Light Snow,20,2014-01-01 20:53:00
4:53 PM,12.9,9.0,84,30.32,1.5,NNE,8.1,-,0.01,Snow,Light Snow,20,2014-01-01 21:53:00
5:13 PM,12.2,8.6,85,30.28,1.5,North,8.1,-,0.00,Snow,Light Snow,10,2014-01-01 22:13:00
5:31 PM,12.2,8.6,85,30.28,2.0,NNE,9.2,-,0.01,Snow,Light Snow,20,2014-01-01 22:31:00
5:53 PM,12.9,10.0,88,30.32,2.0,North,8.1,-,0.01,Snow,Light Snow,10,2014-01-01 22:53:00
6:19 PM,14.0,10.4,86,30.28,1.5,NNE,9.2,-,0.01,Snow,Light Snow,20,2014-01-01 23:19:00
6:37 PM,14.0,10.4,86,30.28,2.0,NNE,10.4,-,0.01,Snow,Light Snow,20,2014-01-01 23:37:00
6:53 PM,14.0,10.0,84,30.32,2.0,North,10.4,-,0.01,Snow,Light Snow,10,2014-01-01 23:53:00
7:20 PM,14.0,10.4,86,30.28,1.8,NNE,9.2,-,0.01,Snow,Light Snow,20,2014-01-02 00:20:00
7:53 PM,14.0,10.9,88,30.31,1.8,NNE,10.4,-,0.03,Snow,Light Snow,20,2014-01-02 00:53:00
8:14 PM,14.0,10.4,86,30.26,2.0,North,9.2,-,0.00,Snow,Light Snow,10,2014-01-02 01:14:00
8:27 PM,14.0,10.4,86,30.26,2.0,North,9.2,-,0.00,Snow,Light Snow,10,2014-01-02 01:27:00
8:53 PM,15.1,10.9,84,30.29,2.0,NNE,9.2,-,0.00,Snow,Light Snow,20,2014-01-02 01:53:00
9:13 PM,15.8,10.4,79,30.24,1.8,NNE,9.2,-,0.01,Snow,Light Snow,20,2014-01-02 02:13:00
9:53 PM,15.1,10.9,84,30.27,1.8,NNE,11.5,-,0.02,Snow,Light Snow,20,2014-01-02 02:53:00
10:08 PM,15.8,10.4,79,30.23,2.0,NNE,11.5,-,0.00,Snow,Light Snow,20,2014-01-02 03:08:00
10:53 PM,15.1,10.9,84,30.26,2.0,NNE,15.0,-,0.01,Snow,Light Snow,20,2014-01-02 03:53:00
11:00 PM,15.8,10.4,79,30.22,1.8,NNE,13.8,-,0.00,Snow,Light Snow,20,2014-01-02 04:00:00
11:22 PM,15.8,10.4,79,30.21,2.0,North,13.8,-,0.01,Snow,Light Snow,10,2014-01-02 04:22:00
11:35 PM,15.8,12.2,86,30.21,1.5,NNE,13.8,-,0.01,Snow,Light Snow,20,2014-01-02 04:35:00
11:53 PM,15.1,12.0,88,30.24,1.2,NNE,13.8,-,0.02,Snow,Light Snow,20,2014-01-02 04:53:00